Location: Althorst
(53.6379°N, 10.7715°E)
Time: 03:18:26
(UTC+00:00)

Meteor 1-12 Rocket - Pass Details

Date: 10 December 2019
Orbit: 854 x 927 km, 81.2° (Epoch: 28 January)

Event Time Altitude Azimuth Distance (km) Brightness Sun altitude
Rises 17:26:22 0° 348° (NNW) 3,561 7.5 -20.7°
Reaches altitude 10° 17:28:59 10° 354° (N) 2,606 6.7 -21.1°
Maximum altitude 17:34:42 47° 68° (ENE) 1,176 4.5 -21.9°
Enters shadow 17:35:21 45° 88° (E) 1,203 4.5 -22.0°
